User: anonymous   Login
Location: Unspecified
(0.0000°N, 0.0000°E)
Time: 17:27:43
(UTC+00:00)
Language:

FIREBIRD 4 - Orbit

View from above orbital plane
View from above orbital plane
View from above satellite
View from above satellite

Ground track
Ground track

The orbit data is extracted from the following two-line orbital elements,

1 40378U 15003C   21336.75715842  .00006251  00000-0  21782-3 0  9992
2 40378  99.1131 153.8597 0112614 328.4707  30.9809 15.24270167378420
Epoch (UTC): 02 December 2021 18:10:18
Eccentricity: 0.0112614
inclination: 99.1131°
perigee height: 415 km
apogee height: 570 km
right ascension of ascending node: 153.8597°
argument of perigee: 328.4707°
revolutions per day: 15.24270167
mean anomaly at epoch: 30.9809°
orbit number at epoch: 37842

The dashed part of the orbit path shows where the satellite is in the earth's shadow,  

DLR